{"data":{"norad_id":62396,"epoch":"2026-09-21T17:10:33.657312Z","epoch_age_seconds":207274,"freshness":"STALE","line1":"1 62396U 24247V   26264.71566733  .00059056  00000+0  64990-3 0  9998","line2":"2 62396  44.9901  58.4041 0008622 261.6486  98.3432 15.62332033 98529","mean_motion":15.62332033,"eccentricity":0.0008622,"inclination_deg":44.9901,"raan_deg":58.4041,"arg_perigee_deg":261.6486,"mean_anomaly_deg":98.3432,"bstar":0.0006499,"rev_number":9852,"period_min":92.169908161897,"perigee_km":375.09504951011,"apogee_km":386.7503720754,"semimajor_km":6759.0597107928,"source":"CELESTRAK","updated_at":"2026-09-23T09:00:21.395759Z"}}